Location: Corcelles
(46.1547°N, 4.7234°E)
Time: 10:55:25
(UTC+00:00)

Cosmos 1241 Rocket - Pass Details

Date: 14 July 2020
Orbit: 935 x 1012 km, 65.8° (Epoch: 05 August)

Event Time Altitude Azimuth Distance (km) Brightness Sun altitude
Rises 01:23:32 0° 324° (NW) 3,684 7.9 -18.8°
Reaches altitude 10° 01:26:05 10° 324° (NW) 2,744 7.2 -18.6°
Maximum altitude 01:32:33 86° 237° (WSW) 1,004 4.5 -18.1°
Drops below altitude 10° 01:39:05 10° 149° (SSE) 2,774 6.6 -17.6°
Enters shadow 01:41:09 - 149° (SSE) 3,530 7.1 -17.5°
